Orbital Elements at Epoch 2459200.5 (2020-Dec-17.0) TDB
Reference: JPL 33 (heliocentric ecliptic J2000)
Element | Value | Uncertainty (1-sigma) | Units |
e | .03374368354611568 | 2.0926e-08 | |
a | 3.054968007447167 | 1.5372e-08 | au |
q | 2.951882133760362 | 7.0452e-08 | au |
i | 10.14019148884362 | 3.7328e-07 | deg |
node | 49.16478962271996 | 1.9637e-06 | deg |
peri | 124.308474429729 | 2.8275e-05 | deg |
M | 246.7689456322713 | 3.0922e-05 | deg |
tp | 2459813.939132788195 (2022-Aug-22.43913279) | 0.00016839 | TDB |
period | 1950.331461955282 5.34 | 1.472e-05 4.03e-08 | d yr |
n | .1845840089351203 | 1.3932e-09 | deg/d |
Q | 3.158053881133971 | 1.5891e-08 | au |
|
| | Orbit Determination Parameters
Additional Information
|